Wind_Speed
41 42 42 44 45 46 47 49 50 51 53 54 55 57 58 59 59 60 61 62 63 64 65 65 66 67 67 68 69 71 72 74 75 72 72 74 76 77 78 79 80 80 80
42 43 45 46 47 48 49 51 52 53 54 56 57 58 58 59 60 62 63 64 65 65 66 67 67 68 69 70 72 74 75 77 80 80 78 79 80 82 83 83 84 84 84
45 46 47 48 49 51 52 53 54 55 56 57 58 59 60 61 62 63 64 65 65 66 67 68 69 70 72 74 75 77 79 82 84 86 85 85 85 86 87 87 87 87 87
48 49 50 51 53 54 54 55 56 56 58 59 60 61 62 63 64 64 65 65 66 67 69 70 72 74 76 78 80 82 84 86 87 89 90 90 89 89 91 91 90 90 89
52 53 54 55 55 56 56 57 58 59 60 61 61 62 63 64 65 65 66 67 68 69 71 74 76 78 80 82 84 86 88 90 91 92 93 93 92 92 93 93 93 91 89
56 57 57 58 58 58 59 60 60 61 61 62 62 63 64 65 66 67 68 70 72 74 76 78 80 82 84 86 88 89 91 92 93 94 94 95 94 94 94 93 93 91 88
58 59 59 59 60 60 61 61 61 62 62 63 64 65 66 67 69 70 72 74 76 78 80 82 84 86 88 89 90 91 92 93 94 96 96 95 95 93 93 91 89 87 84
59 59 60 60 60 61 61 62 62 63 63 64 66 67 68 70 72 74 76 78 80 82 84 86 87 89 90 91 92 93 93 93 94 95 95 94 93 91 89 86 83 80 77
59 59 60 60 61 61 62 62 63 64 65 66 68 69 72 74 76 78 80 82 84 86 87 88 90 91 91 93 94 94 93 92 92 93 92 91 88 85 83 80 77 74 71
59 59 59 60 60 61 62 63 64 65 67 69 71 74 76 78 80 82 85 86 87 88 89 90 91 92 92 93 93 93 92 91 90 89 87 85 82 78 75 73 70 68 65
58 58 59 60 61 62 64 65 67 69 71 73 75 77 79 82 84 86 87 89 90 90 90 90 91 91 91 91 91 91 90 89 87 84 81 77 74 71 68 66 63 61 58
58 59 61 62 63 65 67 69 71 73 75 76 78 80 82 84 86 87 89 89 90 90 90 90 90 90 90 90 89 88 86 84 81 77 73 70 66 63 60 58 56 53 51
60 62 63 65 66 68 70 72 74 76 78 79 81 82 84 85 87 87 88 88 89 90 90 89 89 89 88 87 85 83 80 76 72 69 65 62 59 56 53 51 49 47 46
63 64 66 68 70 71 73 75 77 78 80 81 83 84 85 85 86 87 87 88 88 89 89 88 88 87 85 82 79 75 71 68 64 61 58 54 51 49 47 46 44 43 41
66 67 69 70 72 74 75 76 78 80 81 83 83 84 84 84 85 86 87 87 88 88 88 86 84 82 78 75 72 68 64 61 57 54 51 48 46 45 43 42 41 40 39
68 70 71 72 74 75 76 77 79 80 81 81 82 83 84 85 85 86 87 87 86 86 85 82 79 76 72 68 65 61 57 54 51 49 46 44 43 41 40 39 38 38 37
70 71 72 73 74 75 76 76 77 78 79 80 81 82 83 84 84 84 84 84 84 83 81 78 74 70 66 62 58 54 51 49 46 45 43 41 41 40 39 38 38 38 37
70 71 72 73 74 74 75 76 76 77 78 79 80 81 81 81 82 82 82 82 81 79 76 72 68 63 59 55 52 49 47 45 43 42 41 40 39 39 39 39 38 38 38
70 71 72 73 73 74 75 76 77 77 78 78 78 79 79 80 81 81 81 80 78 75 71 66 62 57 53 50 47 45 44 43 42 41 40 39 39 39 39 39 39 39 38
71 71 72 72 73 74 74 75 76 76 77 77 78 78 79 79 79 79 79 77 74 70 65 60 56 52 49 46 45 43 42 42 41 40 40 40 40 40 40 40 40 40 40
70 71 71 72 72 73 73 74 74 75 76 76 77 77 77 77 77 76 75 73 69 64 59 54 50 48 46 44 43 43 42 41 41 42 42 42 42 42 42 42 42 42 42
70 70 70 71 71 72 72 73 73 74 75 75 75 75 75 75 74 73 71 68 63 58 54 50 47 45 44 43 43 43 42 42 43 43 43 43 43 44 44 44 44 43 43
69 69 70 70 71 71 72 72 73 73 73 73 72 72 72 71 71 69 66 62 58 53 49 46 44 44 43 42 43 43 43 43 44 44 44 45 45 45 45 45 44 44 43
69 69 69 69 69 70 70 71 71 71 71 70 70 69 69 68 67 65 61 57 53 48 45 44 43 43 42 43 43 43 44 44 45 45 45 45 46 46 45 45 44 44 44
67 67 67 67 68 69 69 70 69 69 69 68 68 67 66 65 64 61 57 53 48 45 43 43 42 42 43 43 44 44 44 44 45 45 46 46 46 46 45 45 45 45 45
66 66 66 66 67 68 68 67 67 67 67 66 66 65 64 63 61 57 53 49 45 43 42 42 42 42 42 42 43 43 44 44 45 45 45 45 45 45 45 45 45 45 45
Wind_Direction
269 271 273 275 277 279 280 282 283 284 285 286 287 288 289 290 291 291 292 292 293 294 295 296 296 297 297 298 298 299 299 299 300 300 300 299 299 298 298 297 297 296 295
271 273 276 277 279 280 282 283 284 285 286 287 287 288 289 290 290 291 292 293 294 294 295 296 296 296 297 297 298 299 299 299 299 300 300 299 299 298 298 297 296 295 294
273 276 278 279 281 282 283 284 285 285 286 286 287 288 289 290 290 291 292 293 294 294 295 295 296 296 297 298 299 299 299 299 299 300 300 300 299 298 297 296 296 295 294
277 278 280 281 282 283 284 284 284 285 286 287 288 289 290 290 291 292 293 294 294 295 296 296 297 298 298 299 299 299 299 299 299 299 300 299 299 298 297 296 295 294 293
279 280 281 282 283 283 284 285 285 286 287 288 289 289 290 291 291 292 293 294 295 296 297 298 298 299 299 300 300 300 300 300 299 299 300 300 299 298 297 296 295 295 294
279 280 281 282 282 283 284 285 286 287 288 288 289 290 291 292 293 294 295 296 297 297 298 299 299 300 300 300 300 300 300 300 300 300 300 299 299 298 297 296 296 296 295
279 280 281 282 282 283 284 285 286 287 288 289 290 291 292 293 294 295 296 297 298 299 299 300 300 300 300 300 300 300 301 301 300 300 300 300 299 299 298 297 297 296 296
279 280 281 281 282 283 284 285 286 287 288 290 291 292 293 294 296 297 298 298 299 299 300 300 300 300 300 300 300 300 300 300 300 300 300 300 300 300 299 298 297 296 296
278 279 280 281 282 283 284 286 287 288 289 291 292 293 294 296 297 298 298 299 299 300 300 300 300 300 300 300 300 301 301 301 301 301 301 301 300 300 299 299 298 297 296
278 279 280 281 282 283 285 286 288 289 290 292 293 294 295 296 296 297 298 299 299 299 300 300 301 301 301 301 302 302 302 302 301 301 301 301 300 300 299 299 298 298 297
277 279 280 281 282 284 285 287 288 289 291 292 293 294 295 295 296 297 298 299 300 300 300 301 301 302 302 303 303 303 303 303 302 302 302 301 300 300 299 299 298 298 298
278 279 280 282 283 285 286 287 288 290 291 292 293 294 295 296 297 297 299 299 300 301 302 302 302 303 303 304 304 304 304 303 303 303 302 302 301 300 300 299 299 299 299
278 279 280 282 283 285 286 287 289 290 291 292 293 294 295 296 297 298 299 300 301 302 303 303 304 304 304 304 304 304 303 304 304 303 303 302 301 301 301 301 300 300 300
278 279 281 282 284 285 286 288 289 290 291 292 293 294 295 296 297 298 300 301 302 303 303 304 305 305 304 304 304 304 304 303 303 303 303 302 302 301 301 301 301 301 301
279 280 281 283 284 285 287 288 289 290 291 292 294 295 296 297 298 299 301 302 303 304 304 305 305 305 304 304 303 303 303 303 302 302 302 302 302 302 302 302 302 302 301
280 281 282 283 285 286 287 288 289 291 292 294 295 296 297 299 300 301 302 303 305 305 306 306 305 304 303 303 302 302 301 301 301 300 301 301 301 302 302 302 302 302 301
281 282 283 284 285 286 288 289 290 292 293 295 296 298 299 300 302 303 304 305 306 307 306 306 305 303 302 301 301 300 299 299 299 299 299 299 299 300 301 301 301 301 301
281 282 283 285 286 287 288 290 291 292 294 295 297 299 300 301 303 304 306 307 307 307 306 305 304 302 300 299 299 298 298 298 298 299 298 298 299 300 301 301 301 300 300
282 283 284 285 287 288 289 291 292 294 295 296 298 299 300 302 304 305 307 308 308 307 306 304 302 300 298 297 297 297 296 295 296 296 297 297 298 299 300 300 301 300 300
282 284 285 286 288 289 291 292 293 295 296 298 299 300 302 303 305 306 308 308 308 307 305 302 299 297 296 295 295 295 294 294 294 295 295 296 297 298 299 299 300 300 299
283 284 285 287 288 290 291 293 294 296 297 299 300 302 303 304 306 307 308 308 307 305 303 299 296 295 294 293 293 294 293 293 293 294 295 296 296 297 298 298 298 298 298
282 284 286 287 289 291 292 294 295 297 299 300 301 303 304 305 307 308 308 308 306 303 300 297 294 293 292 292 292 292 292 292 293 294 294 295 295 296 297 297 297 297 297
283 284 286 288 289 291 293 295 297 298 300 301 302 303 305 306 307 308 308 306 304 301 297 295 293 292 291 291 291 291 291 291 292 293 293 294 294 295 296 296 296 296 296
283 284 286 288 290 292 294 296 297 299 301 302 303 304 305 307 307 307 307 305 302 298 296 294 292 291 291 291 291 292 292 292 293 293 294 294 294 294 295 295 295 295 296
283 284 286 288 290 292 294 296 298 299 301 302 303 304 305 307 307 306 305 303 299 296 294 293 292 292 292 292 292 293 293 293 293 293 294 294 294 294 294 294 294 295 296
283 284 286 289 291 293 295 296 298 299 300 301 302 304 305 306 306 305 303 300 297 295 293 292 292 292 292 293 293 294 293 294 294 294 295 295 295 294 294 294 294 295 296
Height
5793 5793 5792 5791 5789 5788 5786 5784 5781 5779 5776 5772 5769 5765 5762 5758 5754 5750 5745 5741 5736 5731 5725 5720 5714 5708 5703 5696 5690 5684 5677 5669 5665 5671 5667 5659 5651 5644 5637 5630 5623 5617 5610
5783 5782 5781 5780 5778 5776 5774 5772 5769 5766 5763 5759 5756 5752 5748 5744 5740 5736 5731 5727 5722 5716 5711 5705 5699 5693 5687 5681 5674 5668 5661 5652 5644 5644 5646 5639 5631 5622 5615 5608 5601 5594 5587
5771 5771 5769 5768 5766 5764 5762 5759 5756 5753 5749 5746 5742 5738 5734 5730 5726 5722 5717 5712 5707 5701 5696 5690 5684 5678 5672 5665 5658 5650 5643 5635 5625 5618 5618 5615 5608 5599 5590 5584 5576 5569 5562
5759 5758 5757 5755 5753 5751 5748 5745 5742 5739 5736 5732 5728 5724 5719 5715 5711 5707 5702 5697 5692 5686 5680 5674 5667 5660 5654 5647 5640 5631 5623 5615 5606 5596 5590 5587 5582 5574 5563 5555 5550 5544 5537
5746 5745 5743 5741 5739 5737 5734 5731 5728 5725 5721 5717 5713 5708 5704 5700 5695 5691 5687 5682 5676 5670 5664 5656 5649 5642 5634 5626 5618 5611 5601 5592 5583 5574 5566 5559 5554 5546 5537 5528 5519 5515 5510
5733 5731 5729 5727 5725 5722 5719 5716 5713 5709 5706 5702 5697 5693 5688 5683 5679 5674 5670 5665 5659 5652 5646 5639 5631 5623 5614 5606 5597 5588 5578 5568 5558 5549 5541 5533 5526 5517 5508 5500 5491 5484 5481
5718 5716 5714 5712 5710 5707 5704 5701 5698 5694 5690 5686 5681 5677 5672 5666 5662 5657 5652 5646 5640 5633 5626 5619 5611 5602 5593 5585 5576 5567 5557 5544 5533 5523 5514 5506 5498 5490 5480 5473 5465 5456 5451
5702 5701 5699 5696 5694 5691 5688 5685 5682 5678 5674 5670 5665 5660 5655 5649 5644 5638 5633 5627 5620 5613 5605 5597 5589 5581 5571 5561 5554 5545 5535 5524 5511 5500 5489 5480 5471 5462 5453 5445 5438 5432 5427
5687 5685 5683 5681 5678 5676 5673 5669 5666 5662 5658 5653 5648 5643 5638 5631 5625 5619 5613 5607 5601 5593 5585 5575 5566 5558 5548 5538 5529 5521 5512 5502 5489 5478 5467 5456 5447 5438 5429 5421 5415 5408 5405
5671 5669 5667 5665 5662 5660 5656 5653 5650 5646 5642 5637 5632 5626 5620 5613 5606 5599 5592 5586 5580 5573 5565 5554 5544 5534 5524 5513 5503 5494 5486 5477 5467 5457 5446 5436 5426 5417 5409 5401 5394 5388 5384
5655 5653 5651 5649 5646 5643 5640 5637 5633 5629 5625 5620 5615 5608 5601 5594 5586 5578 5570 5563 5556 5549 5541 5532 5522 5511 5501 5490 5479 5469 5460 5451 5442 5434 5425 5416 5407 5398 5391 5384 5377 5371 5367
5640 5638 5636 5633 5630 5627 5623 5619 5615 5611 5606 5601 5595 5589 5581 5574 5566 5558 5549 5541 5532 5525 5517 5509 5499 5489 5478 5468 5457 5447 5437 5428 5419 5411 5404 5396 5389 5382 5375 5368 5363 5358 5353
5624 5622 5619 5616 5613 5609 5606 5601 5597 5591 5586 5581 5575 5570 5563 5554 5545 5537 5529 5520 5510 5502 5494 5485 5476 5466 5456 5446 5436 5425 5416 5408 5400 5393 5386 5379 5373 5366 5361 5355 5350 5346 5341
5608 5605 5602 5599 5596 5592 5587 5582 5577 5572 5566 5560 5554 5548 5542 5535 5525 5517 5509 5500 5491 5481 5472 5463 5454 5444 5434 5424 5415 5406 5398 5390 5383 5376 5370 5364 5358 5353 5348 5343 5339 5335 5331
5591 5588 5585 5581 5577 5573 5568 5563 5558 5552 5545 5539 5533 5526 5520 5514 5505 5496 5487 5479 5470 5460 5451 5442 5433 5423 5414 5405 5397 5389 5382 5375 5368 5362 5357 5352 5347 5342 5337 5333 5329 5324 5321
5572 5569 5566 5562 5558 5554 5549 5544 5537 5531 5524 5517 5510 5504 5497 5490 5483 5475 5466 5457 5447 5438 5429 5420 5412 5403 5395 5387 5380 5373 5366 5360 5355 5350 5345 5340 5336 5332 5328 5323 5319 5315 5312
5554 5550 5547 5543 5538 5534 5529 5524 5519 5512 5504 5497 5489 5482 5475 5468 5461 5453 5444 5435 5426 5417 5408 5400 5391 5384 5377 5370 5364 5358 5353 5348 5343 5338 5334 5330 5326 5322 5318 5314 5310 5306 5302
5534 5531 5527 5523 5518 5514 5509 5504 5498 5493 5488 5479 5471 5462 5455 5447 5439 5431 5423 5415 5407 5397 5388 5380 5373 5366 5360 5354 5349 5344 5340 5336 5331 5327 5323 5319 5316 5312 5308 5304 5301 5297 5293
5514 5511 5507 5503 5498 5493 5488 5483 5478 5472 5466 5460 5453 5445 5436 5428 5420 5411 5403 5395 5387 5378 5370 5362 5356 5350 5344 5340 5336 5332 5328 5324 5321 5317 5313 5309 5306 5302 5298 5295 5291 5287 5284
5495 5491 5487 5483 5478 5473 5468 5463 5457 5451 5445 5439 5432 5425 5418 5410 5402 5393 5384 5375 5367 5359 5352 5346 5340 5335 5330 5327 5323 5319 5316 5313 5309 5306 5302 5299 5295 5291 5288 5284 5281 5277 5274
5475 5471 5467 5463 5459 5454 5449 5444 5438 5432 5426 5419 5412 5405 5397 5391 5383 5375 5366 5357 5349 5342 5336 5330 5325 5321 5317 5314 5311 5307 5304 5301 5298 5295 5291 5288 5284 5280 5277 5273 5269 5266 5262
5455 5452 5448 5444 5439 5435 5430 5424 5419 5413 5406 5400 5393 5386 5378 5371 5364 5356 5348 5340 5333 5326 5321 5316 5311 5308 5305 5302 5298 5295 5292 5289 5286 5282 5279 5276 5272 5268 5265 5261 5257 5254 5250
5436 5433 5429 5425 5421 5416 5411 5405 5400 5394 5388 5381 5375 5368 5360 5353 5346 5338 5331 5324 5317 5311 5306 5302 5298 5295 5292 5289 5286 5283 5280 5276 5273 5270 5266 5263 5259 5256 5252 5248 5245 5241 5238
5417 5414 5410 5406 5402 5397 5392 5387 5381 5375 5369 5363 5357 5350 5343 5336 5329 5322 5315 5308 5302 5297 5293 5289 5286 5282 5279 5276 5273 5270 5267 5263 5260 5256 5253 5250 5246 5242 5239 5235 5232 5228 5225
5398 5395 5392 5388 5384 5379 5374 5369 5363 5358 5352 5346 5339 5333 5326 5319 5312 5306 5299 5294 5289 5284 5280 5276 5273 5270 5267 5263 5260 5257 5253 5250 5246 5243 5239 5236 5232 5229 5225 5222 5218 5215 5212
5380 5377 5374 5370 5366 5362 5357 5351 5346 5340 5334 5328 5322 5316 5309 5303 5296 5290 5285 5280 5276 5271 5268 5264 5261 5257 5254 5251 5247 5244 5240 5236 5233 5229 5226 5222 5218 5215 5211 5208 5205 5201 5198